This demonstration page uses our WeatherBlox Daily Observations layout. Learn more.

Left ArrowRight Arrow

Hourly Observations for December 13, 2019

Temp ( °F °C ) Dew Point ( °F °C ) Humidity (%) Winds ( mph kmh ) Pressure ( in mb ) Visibility ( mi km ) Precip ( " mm )
12:10 am 00:10 Cloudy with Mist and Fog 53 11.7 52 11.1 96 96 Calm 30.26 1025 3 4 0.00 0.00
12:22 am 00:22 Cloudy with Mist and Fog 54 12.2 52 11.1 93 93 Calm 30.25 1024 3 5 0.00 0.00
12:35 am 00:35 Cloudy with Mist and Fog 54 12.2 52 11.1 93 93 Calm 30.25 1024 3 4 0.00 0.00
12:46 am 00:46 Cloudy with Mist and Fog 54 12.2 52 11.1 93 93 Calm 30.25 1024 3 4 0.00 0.00
12:53 am 00:53 Cloudy with Mist and Fog 54 12.2 52 11.1 93 93 Calm 30.23 1024 3 4 0.00 0.00
1:13 am 01:13 Cloudy with Mist and Fog 53 11.7 52 11.1 96 96 Calm 30.24 1024 3 4 0.00 0.00
1:25 am 01:25 Cloudy with Mist and Fog 53 11.7 52 11.1 96 96 Calm 30.23 1024 3 5 0.00 0.00
1:50 am 01:50 Cloudy with Mist and Fog 54 12 52 11 94 94 Calm 30.22 1023 3 4 0.00 0.00
1:53 am 01:53 Cloudy with Mist and Fog 53 11.7 52 11.1 96 96 Calm 30.22 1023 3 4 0.00 0.00
2:08 am 02:08 Cloudy with Mist and Fog 53 11.7 52 11.1 96 96 WSW 3 6 30.23 1024 3 5 0.00 0.00
2:16 am 02:16 Cloudy with Mist and Fog 53 11.7 52 11.1 96 96 Calm 30.23 1024 3 4 0.00 0.00
2:53 am 02:53 Cloudy with Mist and Fog 53 11.7 52 11.1 96 96 Calm 30.21 1023 2 3 0.00 0.00
3:20 am 03:20 Cloudy with Mist and Fog 53 11.7 52 11.1 96 96 Calm 30.20 1023 2 3 0.00 0.00
3:30 am 03:30 Cloudy with Mist and Fog 53 11.7 52 11.1 96 96 Calm 30.20 1023 2 3 0.00 0.00
3:53 am 03:53 Cloudy with Mist and Fog 53 11.7 51 10.6 93 93 Calm 30.17 1022 4 6 0.00 0.00
4:53 am 04:53 Cloudy with Mist and Fog 52 11.1 51 10.6 97 97 NW 3 6 30.16 1021 5 8 0.00 0.00
5:53 am 05:53 Cloudy with Light Rain 52 11.1 50 10 93 93 W 6 9 30.15 1021 6 10 0.01 0.25
6:53 am 06:53 Cloudy with Light Rain 52 11.1 50 10 93 93 Calm 30.15 1021 7 11 0.03 0.76
7:53 am 07:53 Cloudy with Light Rain 52 11.1 51 10.6 97 97 Calm 30.12 1020 3 5 0.01 0.25
8:04 am 08:04 Cloudy with Light Rain 52 11.1 51 10.6 97 97 Calm 30.14 1020 2 2 0.01 0.25
8:12 am 08:12 Cloudy with Light Rain 52 11.1 51 10.6 97 97 Calm 30.15 1021 2 2 0.01 0.25
8:38 am 08:38 Cloudy with Light Rain 52 11.1 51 10.6 97 97 Calm 30.15 1021 2 2 0.01 0.25
8:53 am 08:53 Cloudy with Light Rain 52 11.1 51 10.6 97 97 Calm 30.13 1020 3 5 0.02 0.51
9:04 am 09:04 Cloudy with Light Rain 52 11.1 51 10.6 97 97 W 5 7 30.15 1021 3 4 0.01 0.25
9:21 am 09:21 Cloudy with Light Rain 52 11.1 51 10.6 97 97 WSW 3 6 30.15 1021 3 4 0.01 0.25
9:34 am 09:34 Cloudy with Light Rain 52 11.1 50 10 93 93 W 5 7 30.14 1020 3 5 0.02 0.51
9:42 am 09:42 Cloudy with Light Rain 52 11.1 50 10 93 93 W 5 7 30.14 1020 3 4 0.03 0.76
9:53 am 09:53 Cloudy with Light Rain 52 11.1 50 10 93 93 W 3 6 30.13 1020 3 4 0.04 1.02
10:53 am 10:53 Cloudy with Light Rain 53 11.7 52 11.1 96 96 SSW 3 6 30.11 1020 3 4 0.03 0.76
11:00 am 11:00 Cloudy with Light Rain 54 12.2 52 11.1 93 93 S 6 9 30.12 1020 3 5 0.00 0.00
11:08 am 11:08 Cloudy with Light Rain 54 12.2 52 11.1 93 93 SSW 5 7 30.12 1020 3 5 0.01 0.25
11:24 am 11:24 Cloudy with Light Rain 54 12.2 52 11.1 93 93 SSW 7 11 30.11 1020 4 6 0.02 0.51
11:27 am 11:27 Cloudy with Light Rain 54 12.2 52 11.1 93 93 SW 7 11 30.11 1020 2 3 0.02 0.51
11:53 am 11:53 Cloudy with Light Rain 54 12.2 52 11.1 93 93 SW 9 15 30.09 1019 2 3 0.06 1.52
12:53 pm 12:53 Cloudy with Mist and Fog 54 12.2 52 11.1 93 93 SW 5 7 30.06 1018 2 3 0.03 0.76
1:00 pm 13:00 Cloudy 55 12.8 52 11.1 90 90 SSW 5 7 30.06 1018 7 11 0.00 0.00
1:53 pm 13:53 Cloudy with Mist and Fog 54 12.2 51 10.6 90 90 W 5 7 30.03 1017 6 10 0.00 0.00
2:13 pm 14:13 Cloudy with Rain 54 12.2 52 11.1 93 93 SW 3 6 30.02 1017 3 4 0.03 0.76
2:20 pm 14:20 Cloudy with Light Rain 54 12.2 52 11.1 93 93 SSW 6 9 30.02 1017 3 5 0.04 1.02
2:36 pm 14:36 Cloudy with Light Rain 54 12.2 51 10.6 90 90 SSW 10 17 30.01 1016 3 5 0.06 1.52
2:39 pm 14:39 Cloudy with Rain 54 12.2 51 10.6 90 90 SSW 8 13 30.01 1016 2 3 0.06 1.52
2:53 pm 14:53 Cloudy with Light Rain 54 12.2 51 10.6 90 90 SSW 9 15 30.01 1016 2 3 0.10 2.54
3:48 pm 15:48 Cloudy 54 12 50 10 88 88 SSW 9 15 30.01 1016 10 16 0.03 0.76
3:53 pm 15:53 Cloudy 54 12.2 50 10 87 87 SSW 7 11 30.00 1016 10 16 0.03 0.76
4:53 pm 16:53 Cloudy 54 12.2 49 9.4 83 83 SSW 12 19 29.98 1015 8 13 0.01 0.25
5:53 pm 17:53 Cloudy 53 11.7 50 10 89 89 S 12 19 29.97 1015 10 16 0.00 0.00
6:29 pm 18:29 Mostly Cloudy 53 11.7 49 9.4 86 86 S 17 28 29.96 1015 10 16 0.00 0.00
6:48 pm 18:48 Cloudy 54 12 48 9 82 82 S 18 30 29.96 1015 10 16 0.00 0.00
6:53 pm 18:53 Cloudy 53 11.7 49 9.4 86 86 S 17 28 29.95 1014 10 16 0.00 0.00
7:41 pm 19:41 Mostly Cloudy 53 11.7 49 9.4 86 86 SSW 12 19 29.96 1015 10 16 0.00 0.00
7:53 pm 19:53 Cloudy 53 11.7 50 10 89 89 S 16 26 29.95 1014 10 16 0.00 0.00
8:05 pm 20:05 Cloudy 53 11.7 50 10 89 89 S 10 17 29.96 1015 10 16 0.00 0.00
8:53 pm 20:53 Clear 53 11.7 49 9.4 86 86 S 17 28 29.94 1014 10 16 0.00 0.00
9:53 pm 21:53 Clear 51 10.6 49 9.4 92 92 S 8 13 29.96 1014 10 16 0.00 0.00
10:26 pm 22:26 Partly Cloudy 50 10 48 8.9 93 93 NW 5 7 29.99 1015 8 13 0.00 0.00
10:53 pm 22:53 Mostly Cloudy 50 10 48 8.9 93 93 NNW 3 6 29.98 1015 8 13 0.00 0.00
11:53 pm 23:53 Mostly Clear 50 10 47 8.3 89 89 NNW 6 9 29.98 1015 7 11 0.00 0.00

Powered by AerisWeather